Tracking 27419 objects as of 10-Jun-2023
HD Live streaming from Space Station
objects crossing your sky now

INSAT 2B

Track INSAT 2B now!
INSAT 2B is classified as:


NORAD ID: 22724
Int'l Code: 1993-048B
Perigee: 35,812.0 km
Apogee: 35,939.3 km
Inclination: 14.1 °
Period: 1,440.3 minutes
Semi major axis: 42246 km
RCS: 19.9526 m2 (large)
Launch date: July 22, 1993
Source: India (IND)
Launch site: FRENCH GUIANA (FRGUI)

Second of Spain's communications satellites; 15 multi-frequency transponders
Your satellite tracking list
Your tracking list is empty




NASA's NSSDC Master Catalog

Two Line Element Set (TLE):
1 22724U 93048B   23160.76713346  .00000035  00000-0  00000-0 0  9998
2 22724  14.1017  10.7568 0015076 174.8673   6.4307  0.99980334109549
Source of the keplerian elements: AFSPC